Regional Weather Roundup
Issued by NWS

Home | Current Version | Previous Version | Text Only | Print | Product List | Glossary On
Versions: 1 2 3 4 5 6 7 8 9 10 11 12 13 14 15 16 17 18 19 20 21 22 23 24 25 26 27 28 29 30 31 32 33 34 35 36 37 38 39 40 41 42 43 44 45 46 47 48 49 50
000
ASUS43 KTOP 251508
RWRKS

WEATHER ROUNDUP FOR KANSAS
NATIONAL WEATHER SERVICE GOODLAND KS
1000 AM CDT TUE APR 25 2017

NOTE:  "FAIR" INDICATES FEW OR NO CLOUDS BELOW 12,000 FEET WITH NO
SIGNIFICANT WEATHER AND/OR OBSTRUCTIONS TO VISIBILITY.

KSZ001>006-013>018-027>032-041>047-251600-
NORTHWEST KANSAS

CITY           SKY/WX    TMP DP  RH WIND       PRES   REMARKS
GOODLAND       CLOUDY    50  43  77 N17       29.54S
HAYS           CLOUDY    52  43  71 N22G28    29.47R
HILL CITY      CLOUDY    51  46  83 N21G28    29.52F
RUSSELL        CLOUDY    53  45  74 N13       29.45R
$$

KSZ061>065-074>080-084>089-251600-
SOUTHWEST KANSAS

CITY           SKY/WX    TMP DP  RH WIND       PRES   REMARKS
DODGE CITY     CLOUDY    55  49  80 N23       29.45S
ELKHART          N/A     51  41  69 N18         N/A
GARDEN CITY    CLOUDY    51  42  71 N25G35    29.50R
GREAT BEND     PTSUNNY   58  51  78 N20       29.43R
PRATT          MOSUNNY   59  50  74 CALM      29.39R
$$

KSZ066>073-081>083-090>101-251600-
SOUTHEAST KANSAS

CITY           SKY/WX    TMP DP  RH WIND       PRES   REMARKS
CHANUTE        SUNNY     68  53  58 S22G30    29.42F
COFFEYVILLE    MOSUNNY   68  54  60 S24G32    29.43F
HUTCHINSON     MOSUNNY   66  54  65 S14       29.36S
MEDICINE LODGE   N/A     64  53  67 VRB3      29.36S
NEWTON         MOSUNNY   63  54  72 S16       29.37F
PARSONS        MOSUNNY   68  53  58 S23G32    29.44F
WICHITA INTL   PTSUNNY   66  55  67 S17       29.36F
WICHITA JABRA  MOSUNNY   67  55  65 S17       29.36F
WICHITA MCCONL CLOUDY    67  53  61 S17       29.37F
WINFIELD       MOSUNNY   68  55  63 S13G22    29.39S
$$

KSZ007>012-019>026-033>040-048>060-102>105-251600-
NORTHEAST KANSAS

CITY           SKY/WX    TMP DP  RH WIND       PRES   REMARKS
CONCORDIA      CLOUDY    55  49  80 N7        29.44R
EMPORIA        CLOUDY    62  52  69 S20G28    29.38S
LAWRENCE       SUNNY     67  51  56 S16       29.43F
MANHATTAN      CLOUDY    67  52  58 S8        29.39F
MARYSVILLE     CLOUDY    61  50  67 NE8       29.42F
OLATHE IND     SUNNY     67  50  54 S13G24    29.45F
OLATHE EXE     SUNNY     63  50  62 S17G24    29.44F
SALINA         SUNNY     65  52  62 CALM      29.40S
TOPEKA BILLARD PTSUNNY   67  52  58 S10       29.42F
TOPEKA FORBES  MOSUNNY   68  51  54 S10G20    29.42F
$$



USA.gov is the U.S. government's official web portal to all federal, state and local government web resources and services.